Current weather by "City, St" or "zip code"  
 

Current Conditions: Houston, Houston Hobby Airport, TX

Fair


54.0 F

Last Updated on Oct 31 2020, 2:53 am CDT
Humidity: 75%
Wind Speed: N 0.0 mph
Barometer 30.22 in
Dewpoint: 46.0 F
Visibility: 10.00 mi
Precip: --
Heat Index: NA
Wind Chill: NA
Current conditions at:

Houston, Houston Hobby Airport, TX (KHOU)

Lat: 29.6375 Lon: 95.2825

Local Radar Image active severe weather and emergency alerts image image weather storm and storm spotter reports image weather observation monitoring service image
Local
Radar
Active
Alerts
Storm Reports Obs
Monitoring

Sign-up For Email & Text Message Weather Alert Notification Services



Advertise Here

Observation History for Houston, Houston Hobby Airport, TX


Time Wind
(mph)
Vis
(mi)
Weather Precip (in) Temperature (F) Relative
Humidity
Wind
Chill
(F)
Heat
Index
(F)
Pressure
Air Dwpt altimeter
(in)
sea level
(mb)
Rmks
2:53 am CDT N 0.0 10.00 Fair -- 54.0 46.0 75% NA NA 30.22 1023.6
1:53 am CDT N 0.0 10.00 Fair -- 53.0 46.0 77% NA NA 30.21 1023.6
12:53 am CDT S 3.5 10.00 Fair -- 54.0 46.9 77% NA NA 30.22 1023.8
11:53 pm CDT N 0.0 10.00 Fair -- 54.0 46.0 75% NA NA 30.22 1023.9
10:53 pm CDT NE 4.6 10.00 Fair -- 57.0 46.0 67% 57 NA 30.21 1023.6
9:53 pm CDT NE 5.8 10.00 Fair -- 60.0 45.0 58% 60 NA 30.21 1023.4
8:53 pm CDT N 0.0 10.00 Fair -- 61.0 44.1 54% NA NA 30.20 1023.1
7:53 pm CDT NE 4.6 10.00 Fair -- 64.0 42.1 45% NA NA 30.19 1022.9
6:53 pm CDT N 5.8 10.00 Fair -- 64.0 42.1 45% NA NA 30.18 1022.6
5:53 pm CDT N 8.1 10.00 Fair -- 69.0 39.9 35% NA NA 30.18 1022.5
4:53 pm CDT W 5.8 10.00 Fair -- 69.0 39.0 33% NA NA 30.19 1022.7
3:53 pm CDT 3.5 10.00 Fair -- 68.0 39.0 35% NA NA 30.20 1023.0
2:53 pm CDT N 4.6 10.00 Fair -- 68.0 41.0 38% NA NA 30.22 1023.7
1:53 pm CDT 3.5 10.00 Fair -- 65.0 44.1 47% NA NA 30.24 1024.4
12:53 pm CDT N 0.0 10.00 Fair -- 62.0 44.1 52% NA NA 30.28 1025.7
11:53 am CDT SE 4.6 10.00 A Few Clouds -- 60.0 44.1 56% 60 NA 30.30 1026.6
10:53 am CDT E 6.9 10.00 A Few Clouds -- 57.0 45.0 64% 56 NA 30.30 1026.5
9:53 am CDT NE 10.4 10.00 Partly Cloudy -- 56.0 45.0 67% 53 NA 30.30 1026.4
8:53 am CDT NE 11.5 10.00 A Few Clouds -- 54.0 44.1 69% 51 NA 30.27 1025.5
7:53 am CDT NE 12.7 10.00 Fair -- 51.0 43.0 74% 46 NA 30.25 1024.9
6:53 am CDT NE 5.8 10.00 Fair -- 51.0 43.0 74% 49 NA 30.23 1024.0
5:53 am CDT N 6.9 10.00 Fair -- 51.0 42.1 71% 48 NA 30.21 1023.5
4:53 am CDT N 11.5 10.00 Fair -- 52.0 43.0 72% 48 NA 30.20 1023.1

Regional Weather Observation


Houston, Houston Hobby Airport, TX (KHOU)

Fair
54.0 F

Houston Southwest Airport, TX (KAXH)

Fog/Mist
44.0 F

Houston, Pearland Regional Airport, TX (KLVJ)

Fair
48.0 F

Houston, Hooks Memorial Airport, TX (KDWH)

Fog/Mist
45.0 F

Angleton / Lake Jackson, Brazoria County Airport, TX (KLBX)

Fog/Mist
46.0 F

Conroe, Montgomery County Airport, TX (KCXO)

Fair
41.0 F